Tulsa, OK

11:16 PM CDT on July 25, 2017 (GMT -0500)
Tulsa International

Weather History for KTUL - February, 2011

Change the Weather History Date:

Wednesday, February 2, 2011

  Actual Average Record
Temperature  
Mean Temperature 8 °F 39 °F  
Max Temperature 16 °F 50 °F 77 °F (1995)
Min Temperature -1 °F 28 °F -1 °F (2011)
Degree Days  
Heating Degree Days 57 26  
Month to date heating degree days 104 52  
Since 1 July heating degree days 2362 2325  
Moisture  
Dew Point -2 °F    
Average Humidity 64    
Maximum Humidity 76    
Minimum Humidity 51    
Precipitation  
Precipitation 0.00 in 0.06 in 0.69 in (1943)
Month to date precipitation 1.00 0.11  
Year to date precipitation 1.57 1.77  
Snow  
Snow 0.00 in - - ()
Month to date snowfall 13.2  
Since 1 July snowfall 16.8  
Snow Depth 15.00 in    
Sea Level Pressure  
Sea Level Pressure 30.63 in    
Wind  
Wind Speed 12 mph (NNW)    
Max Wind Speed 20 mph    
Max Gust Speed 24 mph    
Visibility 10 miles    
Events      
T = Trace of Precipitation, MM = Missing Value Source: NWS Daily Summary

Daily Weather History Graph

Daily Weather History Graph

Search for Another Location

Airport or City:

Trip Planner

Search our weather history database for the weather conditions in past years. The results will help you decide how hot, cold, wet, or windy it might be!

Date:

Astronomy

Feb. 02, 2011 Rise Set
Actual Time 7:23 AM CST 5:51 PM CST
Civil Twilight 6:56 AM CST 6:18 PM CST
Nautical Twilight 6:26 AM CST 6:48 PM CST
Astronomical Twilight 5:56 AM CST 7:18 PM CST
Moon 6:56 AM CST (2/2) 5:46 PM CST (2/2)
Length of Visible Light 11h 21m
Length of Day
10h 27m
Waning Crescent, 0% of the Moon is Illuminated
Feb 2
Waning Crescent
Feb 2
New
Feb 11
First Quarter
Feb 18
Full
Feb 24
Last Quarter

Hourly Weather History & Observations

Time (CST) Temp. Windchill Dew Point Humidity Pressure Visibility Wind Dir Wind Speed Gust Speed Precip Events Conditions
12:53 AM 9.0 °F -7.9 °F 1.9 °F 73% 30.44 in 10.0 mi NW 15.0 mph - N/A   Clear
1:53 AM 9.0 °F -7.3 °F 1.9 °F 73% 30.46 in 10.0 mi NW 13.8 mph - N/A   Clear
2:53 AM 8.1 °F -7.0 °F 1.0 °F 73% 30.48 in 10.0 mi NW 11.5 mph - N/A   Clear
3:53 AM 8.1 °F -10.2 °F -0.0 °F 70% 30.47 in 10.0 mi NNW 17.3 mph - N/A   Clear
4:53 AM 6.1 °F -10.9 °F -0.9 °F 73% 30.51 in 10.0 mi NNW 13.8 mph - N/A   Clear
5:53 AM 5.0 °F -13.0 °F -2.2 °F 72% 30.50 in 10.0 mi NNW 15.0 mph - N/A   Clear
6:53 AM 3.9 °F -13.7 °F -4.0 °F 70% 30.58 in 10.0 mi NW 13.8 mph - N/A   Clear
7:53 AM 3.0 °F -10.5 °F -6.0 °F 66% 30.61 in 10.0 mi NNW 8.1 mph - N/A   Partly Cloudy
8:53 AM 5.0 °F -11.6 °F -6.0 °F 61% 30.66 in 10.0 mi NNW 12.7 mph - N/A   Partly Cloudy
9:53 AM 6.1 °F -13.3 °F -5.1 °F 60% 30.67 in 10.0 mi NNW 18.4 mph - N/A   Clear
10:53 AM 8.1 °F -9.0 °F -2.9 °F 61% 30.69 in 10.0 mi North 15.0 mph - N/A   Clear
11:53 AM 10.0 °F -5.9 °F -2.0 °F 58% 30.69 in 10.0 mi NNW 13.8 mph - N/A   Clear
12:53 PM 12.0 °F -1.3 °F -0.9 °F 56% 30.68 in 10.0 mi North 10.4 mph - N/A   Partly Cloudy
1:53 PM 12.9 °F -0.9 °F -0.0 °F 56% 30.67 in 10.0 mi North 11.5 mph - N/A   Scattered Clouds
2:53 PM 15.1 °F 1.8 °F -0.0 °F 51% 30.68 in 10.0 mi North 11.5 mph - N/A   Clear
3:53 PM 15.1 °F 1.1 °F 1.0 °F 54% 30.68 in 10.0 mi North 12.7 mph - N/A   Clear
4:53 PM 15.1 °F 2.5 °F -0.0 °F 51% 30.69 in 10.0 mi North 10.4 mph - N/A   Clear
5:53 PM 12.0 °F 0.5 °F -0.9 °F 56% 30.70 in 10.0 mi North 8.1 mph - N/A   Partly Cloudy
6:53 PM 12.0 °F -0.4 °F -0.0 °F 59% 30.71 in 10.0 mi North 9.2 mph - N/A   Partly Cloudy
7:53 PM 7.0 °F -5.7 °F -2.9 °F 64% 30.71 in 10.0 mi North 8.1 mph - N/A   Partly Cloudy
8:53 PM 6.1 °F -5.6 °F -2.9 °F 67% 30.72 in 10.0 mi NNW 6.9 mph - N/A   Partly Cloudy
9:53 PM 1.0 °F -11.7 °F -6.0 °F 72% 30.73 in 10.0 mi North 6.9 mph - N/A   Partly Cloudy
10:53 PM 3.0 °F -8.0 °F -4.0 °F 73% 30.74 in 10.0 mi NW 5.8 mph - N/A   Partly Cloudy
11:53 PM -0.0 °F -13.0 °F -6.0 °F 76% 30.72 in 10.0 mi North 6.9 mph - N/A   Partly Cloudy